FLOCK 3P-78

Last updated on Wed Feb 14 2018 16:20:34 GMT+0000 (Coordinated Universal Time)

1 42047U 17008DD 18044.90516707 .00001418 00000-0 61649-4 0 9999 2 42047 97.4682 110.5610 0009830 73.4470 286.7846 15.23897857 54492
UTC large
Height (km)
Speed (km/s)
/
Latitude / Longitude
Inclination (degrees)
Orbital Period (minutes)
Azimuth
Elevation
Range (km)
Doppler Factor

Next 0 passes for location: London (51.5072 / 0.1276)

Sorry there are no passes over London.